This is the latest recevied weather packets stored in our database for station/object OK2ZA-6. If no packets are shown the sender has not sent any weather packets the latest 10 day(s).
| Time | Temp. | Humidity | Pressure | Rain* | Wind** | Luminosity | Snow |
|---|---|---|---|---|---|---|---|
| 1777744204 | 19.44° C | 38% | 1019.5 hPa | 0 mm | - | - | - |
| 1777743604 | 19.44° C | 38% | 1019.5 hPa | 0 mm | - | - | - |
| 1777743004 | 20° C | 36% | 1019.5 hPa | 0 mm | - | - | - |
| 1777742404 | 20° C | 36% | 1019.5 hPa | 0 mm | - | - | - |
| 1777741804 | 20° C | 39% | 1019.5 hPa | 0 mm | - | - | - |
| 1777741204 | 21.11° C | 35% | 1019.5 hPa | 0 mm | - | - | - |
| 1777740603 | 21.11° C | 35% | 1019.6 hPa | 0 mm | - | - | - |
| 1777740003 | 21.11° C | 33% | 1019.7 hPa | 0 mm | - | - | - |
| 1777739403 | 21.11° C | 32% | 1019.9 hPa | 0 mm | - | - | - |
| 1777738804 | 21.67° C | 32% | 1019.9 hPa | 0 mm | - | - | - |
| 1777738203 | 21.67° C | 32% | 1020 hPa | 0 mm | - | - | - |
| 1777737604 | 21.67° C | 33% | 1020.2 hPa | 0 mm | - | - | - |
| 1777737004 | 21.67° C | 32% | 1020.3 hPa | 0 mm | - | - | - |
| 1777736404 | 21.67° C | 34% | 1020.4 hPa | 0 mm | - | - | - |
| 1777735803 | 21.67° C | 32% | 1020.5 hPa | 0 mm | - | - | - |
| 1777735203 | 21.67° C | 33% | 1020.5 hPa | 0 mm | - | - | - |
| 1777734604 | 21.67° C | 31% | 1020.6 hPa | 0 mm | - | - | - |
| 1777734004 | 22.22° C | 33% | 1020.7 hPa | 0 mm | - | - | - |
| 1777733403 | 21.67° C | 34% | 1020.8 hPa | 0 mm | - | - | - |
| 1777732803 | 21.67° C | 32% | 1020.9 hPa | 0 mm | - | - | - |
| 1777732203 | 21.67° C | 34% | 1021 hPa | 0 mm | - | - | - |
| 1777731605 | 21.67° C | 32% | 1021 hPa | 0 mm | - | - | - |
| 1777731004 | 21.67° C | 32% | 1021.2 hPa | 0 mm | - | - | - |
| 1777730404 | 21.67° C | 34% | 1021.2 hPa | 0 mm | - | - | - |
| 1777729804 | 21.67° C | 37% | 1021.4 hPa | 0 mm | - | - | - |
* Rain latest hour (hover to see other rain measurements)
** Current wind speed in m/s (hover to see current wind gust speed)